Location: Brede
(50.9167°N, 0.6000°E)
Time: 04:16:01
(UTC+00:00)

Landsat 5 - Visible Passes

Search period start: 26 November 2020 00:00
Search period end: 06 December 2020 00:00
Orbit: 528 x 654 km, 98.2° (Epoch: 25 November)

Date Brightness Start Highest point End Pass type
(mag) Time Alt. Az. Time Alt. Az. Time Alt. Az.
26 Nov 4.9 17:48:06 10° N 17:52:12 41° WNW 17:56:23 10° SW visible
27 Nov 5.2 17:56:33 10° N 18:00:32 35° WNW 18:04:36 10° SW visible
28 Nov 4.2 16:29:19 10° NNE 16:33:28 38° E 16:37:40 10° SSE visible
28 Nov 5.4 18:05:01 10° N 18:08:52 30° WNW 18:12:46 10° SW visible
29 Nov 4.0 16:37:37 10° NNE 16:41:53 45° E 16:46:13 10° S visible
29 Nov 5.7 18:13:31 10° N 18:17:11 26° WNW 18:20:53 10° WSW visible
30 Nov 3.8 16:45:56 10° NNE 16:50:18 54° E 16:54:43 10° S visible
30 Nov 5.9 18:22:02 10° N 18:25:29 23° WNW 18:28:59 10° WSW visible
01 Dec 3.7 16:54:16 10° NNE 16:58:42 65° ESE 17:03:12 10° S visible
01 Dec 6.1 18:30:35 10° NNW 18:33:47 20° WNW 18:37:01 10° WSW visible
02 Dec 3.6 17:02:36 10° NNE 17:07:06 77° ESE 17:11:37 10° S visible
02 Dec 6.3 18:39:10 10° NNW 18:42:04 17° WNW 18:45:00 10° W visible
03 Dec 3.7 17:10:58 10° NNE 17:15:28 89° NNW 17:20:01 10° SSW visible
03 Dec 6.4 18:47:48 10° NNW 18:50:21 15° NW 18:52:54 10° W visible
04 Dec 3.8 17:19:22 10° NNE 17:23:51 77° WNW 17:28:22 10° SSW visible
04 Dec 6.5 18:56:32 10° NNW 18:58:37 13° NW 19:00:43 10° W visible
05 Dec 4.1 17:27:45 10° N 17:32:13 65° WNW 17:36:42 10° SSW visible
05 Dec 6.6 19:05:26 10° NNW 19:06:53 11° NW 19:08:20 10° WNW visible
